• In Sweden
  • List of Countries
  • For 7 days
  • Water Temperature
  • Satellite Maps
  • Weather Map
  • Weather Widgets
  • user-avatar
    Login

    Hourly Weather Kranevo

    Today, 13 November, Tuesday

    Time Temperature Precipitation Wind Pressure Humidity
    00:00 +10°C° 0 mm 5 mps 768 mmHg 80%
    01:00 +9°C° 0 mm 5 mps 768 mmHg 80%
    02:00 +9°C° 0 mm 5 mps 768 mmHg 81%
    03:00 +9°C° 0 mm 5 mps 768 mmHg 80%
    04:00 +9°C° 0 mm 5 mps 768 mmHg 79%
    05:00 +9°C° 0 mm 5 mps 768 mmHg 78%
    06:00 +9°C° 0 mm 6 mps 768 mmHg 77%
    07:00 +9°C° 0 mm 6 mps 768 mmHg 77%
    08:00 +9°C° 0 mm 6 mps 769 mmHg 76%
    09:00 +9°C° 0 mm 5 mps 769 mmHg 74%
    10:00 +9°C° 0 mm 5 mps 769 mmHg 72%
    11:00 +9°C° 0 mm 5 mps 769 mmHg 71%
    12:00 +9°C° 0 mm 5 mps 769 mmHg 69%
    13:00 +9°C° 0 mm 5 mps 769 mmHg 68%
    14:00 +10°C° 0 mm 5 mps 769 mmHg 66%
    15:00 +9°C° 0 mm 5 mps 768 mmHg 68%
    16:00 +9°C° 0 mm 5 mps 768 mmHg 70%
    17:00 +8°C° 0 mm 5 mps 768 mmHg 71%
    18:00 +8°C° 0 mm 5 mps 768 mmHg 73%
    19:00 +7°C° 0 mm 5 mps 768 mmHg 75%
    20:00 +7°C° 0 mm 4 mps 768 mmHg 76%
    21:00 +6°C° 0 mm 4 mps 768 mmHg 78%
    22:00 +6°C° 0 mm 4 mps 768 mmHg 80%
    23:00 +7°C° 0 mm 3 mps 768 mmHg 82%

    Tomorrow, 14 November, Wednesday

    Time Temperature Precipitation Wind Pressure Humidity
    00:00 +5°C° 0 mm 3 mps 767 mmHg 83%
    01:00 +5°C° 0 mm 3 mps 767 mmHg 84%
    02:00 +6°C° 0 mm 2 mps 767 mmHg 84%
    03:00 +5°C° 0 mm 2 mps 766 mmHg 85%
    04:00 +5°C° 0 mm 2 mps 766 mmHg 86%
    05:00 +5°C° 0 mm 2 mps 765 mmHg 86%
    06:00 +5°C° 0 mm 2 mps 765 mmHg 85%
    07:00 +5°C° 0 mm 2 mps 765 mmHg 84%
    08:00 +6°C° 0 mm 2 mps 765 mmHg 82%
    09:00 +8°C° 0 mm 1 mps 765 mmHg 77%
    10:00 +9°C° 0 mm 1 mps 765 mmHg 71%
    11:00 +10°C° 0 mm 1 mps 765 mmHg 65%
    12:00 +10°C° 0 mm 1 mps 764 mmHg 62%
    13:00 +11°C° 0 mm 1 mps 764 mmHg 59%
    14:00 +12°C° 0 mm 1 mps 764 mmHg 56%
    15:00 +11°C° 0 mm 1 mps 763 mmHg 57%
    16:00 +11°C° 0 mm 1 mps 763 mmHg 59%
    17:00 +10°C° 0 mm 2 mps 763 mmHg 61%
    18:00 +9°C° 0 mm 2 mps 763 mmHg 63%
    19:00 +9°C° 0 mm 2 mps 763 mmHg 65%
    20:00 +10°C° 0 mm 1 mps 763 mmHg 67%
    21:00 +10°C° 0 mm 1 mps 763 mmHg 68%
    22:00 +10°C° 0 mm 1 mps 763 mmHg 69%
    23:00 +10°C° 0 mm 1 mps 762 mmHg 70%

    Day after tomorrow, 15 November, Thursday

    Time Temperature Precipitation Wind Pressure Humidity
    00:00 +9°C° 0 mm 1 mps 762 mmHg 72%
    01:00 +8°C° 0 mm 2 mps 762 mmHg 73%
    02:00 +8°C° 0 mm 2 mps 762 mmHg 75%
    03:00 +8°C° 0.5 mm 2 mps 762 mmHg 78%
    04:00 +8°C° 0.5 mm 3 mps 761 mmHg 81%
    05:00 +6°C° 0.5 mm 4 mps 761 mmHg 84%
    06:00 +6°C° 1.1 mm 5 mps 761 mmHg 84%
    07:00 +6°C° 1.1 mm 5 mps 761 mmHg 85%
    08:00 +4°C° 1.1 mm 6 mps 761 mmHg 85%
    09:00 +5°C° 0.7 mm 6 mps 761 mmHg 83%
    10:00 +5°C° 0.7 mm 6 mps 762 mmHg 80%
    11:00 +5°C° 0.7 mm 7 mps 762 mmHg 78%
    12:00 +6°C° 0.4 mm 7 mps 762 mmHg 77%
    13:00 +6°C° 0.4 mm 7 mps 762 mmHg 76%
    14:00 +6°C° 0.4 mm 8 mps 761 mmHg 75%
    15:00 +6°C° 0.5 mm 8 mps 761 mmHg 76%
    16:00 +6°C° 0.5 mm 8 mps 761 mmHg 76%
    17:00 +6°C° 0.5 mm 8 mps 762 mmHg 77%
    18:00 +6°C° 0.4 mm 8 mps 762 mmHg 77%
    19:00 +6°C° 0.4 mm 8 mps 762 mmHg 77%
    20:00 +6°C° 0.4 mm 8 mps 762 mmHg 77%
    21:00 +6°C° 0.1 mm 8 mps 763 mmHg 78%
    22:00 +5°C° 0.1 mm 8 mps 763 mmHg 80%
    23:00 +5°C° 0.1 mm 8 mps 763 mmHg 81%

    16 November, Friday

    Time Temperature Precipitation Wind Pressure Humidity
    00:00 +5°C° 0.1 mm 8 mps 763 mmHg 81%
    01:00 +4°C° 0.1 mm 8 mps 763 mmHg 82%
    02:00 +4°C° 0.1 mm 8 mps 763 mmHg 82%
    03:00 +4°C° 0.2 mm 8 mps 763 mmHg 81%
    04:00 +4°C° 0.2 mm 8 mps 763 mmHg 81%
    05:00 +2°C° 0.2 mm 9 mps 763 mmHg 80%
    06:00 +2°C° 0.1 mm 9 mps 764 mmHg 79%
    07:00 +2°C° 0.1 mm 9 mps 764 mmHg 78%
    08:00 +1°C° 0.1 mm 9 mps 765 mmHg 77%
    09:00 +2°C° 0.2 mm 9 mps 765 mmHg 75%
    10:00 +2°C° 0.2 mm 9 mps 765 mmHg 73%
    11:00 +3°C° 0.2 mm 9 mps 765 mmHg 70%
    12:00 +3°C° 0.2 mm 9 mps 765 mmHg 69%
    13:00 +3°C° 0.2 mm 9 mps 765 mmHg 67%
    14:00 +3°C° 0.2 mm 9 mps 765 mmHg 66%
    15:00 +3°C° 0.1 mm 9 mps 765 mmHg 68%
    16:00 +2°C° 0.1 mm 9 mps 765 mmHg 69%
    17:00 +2°C° 0.1 mm 9 mps 766 mmHg 71%
    18:00 +2°C° 0.1 mm 9 mps 766 mmHg 70%
    19:00 +2°C° 0.1 mm 9 mps 766 mmHg 70%
    20:00 +2°C° 0.1 mm 9 mps 766 mmHg 69%
    21:00 +2°C° 0.1 mm 9 mps 766 mmHg 67%
    22:00 +1°C° 0.1 mm 9 mps 766 mmHg 66%
    23:00 +1°C° 0.1 mm 9 mps 767 mmHg 64%

    17 November, Saturday

    Time Temperature Precipitation Wind Pressure Humidity
    00:00 +1°C° 0 mm 9 mps 767 mmHg 65%
    01:00 +1°C° 0 mm 9 mps 767 mmHg 65%
    02:00 0°C° 0 mm 9 mps 767 mmHg 66%
    03:00 0°C° 0 mm 8 mps 767 mmHg 66%
    04:00 0°C° 0 mm 8 mps 767 mmHg 66%
    05:00 -1°C° 0 mm 8 mps 767 mmHg 66%
    06:00 -1°C° 0 mm 8 mps 767 mmHg 66%
    07:00 -1°C° 0 mm 8 mps 767 mmHg 65%
    08:00 -2°C° 0 mm 8 mps 768 mmHg 65%
    09:00 -1°C° 0 mm 7 mps 768 mmHg 64%
    10:00 0°C° 0 mm 7 mps 768 mmHg 62%
    11:00 +2°C° 0 mm 7 mps 768 mmHg 60%
    12:00 +2°C° 0 mm 7 mps 768 mmHg 59%
    13:00 +2°C° 0 mm 7 mps 768 mmHg 58%
    14:00 +3°C° 0 mm 7 mps 768 mmHg 58%
    15:00 +2°C° 0 mm 7 mps 768 mmHg 60%
    16:00 +2°C° 0 mm 7 mps 768 mmHg 62%
    17:00 0°C° 0 mm 7 mps 768 mmHg 65%
    18:00 +1°C° 0 mm 6 mps 768 mmHg 66%
    19:00 +1°C° 0 mm 6 mps 768 mmHg 67%
    20:00 -1°C° 0 mm 6 mps 768 mmHg 68%
    21:00 -1°C° 0 mm 6 mps 768 mmHg 70%
    22:00 -1°C° 0 mm 6 mps 768 mmHg 71%
    23:00 -1°C° 0 mm 6 mps 768 mmHg 73%

    18 November, Sunday

    Time Temperature Precipitation Wind Pressure Humidity
    00:00 -2°C° 0 mm 6 mps 768 mmHg 75%
    01:00 -2°C° 0 mm 6 mps 767 mmHg 77%
    02:00 -2°C° 0 mm 6 mps 767 mmHg 79%
    03:00 -1°C° 0 mm 5 mps 767 mmHg 78%
    04:00 -1°C° 0 mm 5 mps 766 mmHg 77%
    05:00 -1°C° 0 mm 5 mps 766 mmHg 77%
    06:00 -1°C° 0 mm 5 mps 766 mmHg 75%
    07:00 -1°C° 0 mm 5 mps 766 mmHg 73%
    08:00 -1°C° 0 mm 5 mps 766 mmHg 70%
    09:00 +1°C° 0 mm 5 mps 766 mmHg 66%
    10:00 +2°C° 0 mm 5 mps 766 mmHg 61%
    11:00 +5°C° 0 mm 5 mps 766 mmHg 56%
    12:00 +5°C° 0 mm 5 mps 765 mmHg 54%
    13:00 +6°C° 0 mm 5 mps 764 mmHg 53%
    14:00 +6°C° 0 mm 5 mps 764 mmHg 51%
    15:00 +5°C° 0 mm 5 mps 763 mmHg 53%
    16:00 +5°C° 0 mm 5 mps 763 mmHg 55%
    17:00 +4°C° 0 mm 4 mps 762 mmHg 57%
    18:00 +4°C° 0 mm 4 mps 762 mmHg 57%
    19:00 +3°C° 0 mm 4 mps 761 mmHg 57%
    20:00 +3°C° 0 mm 4 mps 761 mmHg 57%
    21:00 +1°C° 0 mm 4 mps 760 mmHg 57%
    22:00 +2°C° 0 mm 3 mps 760 mmHg 57%
    23:00 +2°C° 0 mm 3 mps 760 mmHg 57%
    Show more